Wind_Speed
25 24 24 25 25 25 25 25 25 25 25 25 25 25 26 26 26 25 25 25 25 24 24 23 22 20 18 17 18 18 19 19 19 19 18 17 17 17 17 16 15 14 13 11 10 10 9 8 8 8 8 7 7 7 6 6 6 5 5 4 3 2 2 1 1 2 3 3 3 3 3 3 4 5 5 6 7 7 7 7 6 5 4 4 4
25 23 25 25 26 26 26 26 26 25 25 26 26 26 26 25 26 25 25 25 25 24 24 24 23 21 20 19 19 19 20 20 20 19 18 17 17 17 16 16 15 14 13 12 10 10 9 9 9 9 9 8 8 7 7 6 6 6 5 4 3 2 2 1 1 2 3 3 4 4 4 4 4 5 6 7 8 7 7 7 7 6 5 4 4
24 23 25 25 26 26 26 27 26 26 26 26 26 25 25 25 25 25 25 25 24 24 24 24 24 22 21 20 20 20 20 20 20 19 17 16 16 16 16 15 15 14 13 11 10 10 10 9 9 9 9 9 9 8 7 7 6 6 5 4 3 3 2 1 1 2 2 3 4 5 4 4 4 5 6 7 8 8 8 7 7 6 5 5 4
22 23 24 25 26 26 27 27 27 27 27 26 26 25 25 24 25 25 25 25 24 24 25 25 24 23 22 21 20 20 20 20 20 18 16 16 16 15 15 15 15 14 13 11 10 10 10 9 9 9 10 10 9 8 8 8 7 6 5 4 3 3 3 2 1 2 2 4 4 5 5 5 5 5 6 7 8 9 8 7 7 6 6 5 4
22 24 24 25 27 27 27 27 27 27 27 26 25 24 24 24 24 25 25 25 25 25 26 26 25 23 22 21 21 20 20 20 19 17 16 16 16 15 14 14 14 14 13 11 10 10 9 9 9 10 10 10 10 9 9 8 7 6 5 5 4 3 3 2 2 1 2 3 5 6 5 5 5 5 6 7 8 9 8 8 7 6 6 5 5
26 27 26 27 27 27 27 27 27 27 26 25 24 23 23 24 24 25 25 25 26 26 26 26 25 23 22 21 21 21 21 20 19 17 16 16 16 15 14 14 14 13 12 11 10 9 9 9 9 9 10 10 10 10 9 9 8 7 5 5 4 3 3 2 1 1 1 2 4 5 6 6 6 6 6 7 9 9 9 8 7 7 6 5 5
27 27 26 27 26 27 27 27 27 26 25 24 23 23 23 24 24 25 25 26 27 27 26 25 24 23 22 21 21 21 21 20 18 17 17 17 16 15 14 13 13 12 11 11 9 9 9 8 9 9 10 10 10 10 10 9 8 7 6 6 5 4 3 2 1 0 1 2 4 5 6 7 6 6 6 7 8 9 9 9 8 7 7 6 5
26 26 26 25 25 26 26 26 26 25 24 23 23 23 23 23 24 25 25 26 27 26 25 24 23 22 21 20 21 21 21 19 17 17 17 18 17 16 15 14 13 12 11 10 9 9 8 8 9 9 10 10 10 10 10 10 9 8 7 6 5 4 3 2 1 1 1 1 2 4 6 7 7 7 7 7 8 9 10 10 9 8 7 7 6
26 25 25 25 25 25 25 25 25 25 24 24 24 23 23 23 24 25 26 26 25 24 24 23 22 21 21 20 21 21 21 18 17 17 17 18 18 18 16 14 13 12 11 10 10 9 9 9 9 10 10 11 11 11 11 10 9 8 8 7 6 5 4 3 2 1 1 1 1 3 5 7 7 7 7 7 8 9 10 10 10 9 8 7 7
25 24 24 24 25 25 25 25 24 25 24 24 24 24 23 23 25 25 25 24 23 22 22 22 21 21 21 21 22 22 21 18 17 17 18 18 18 18 17 15 14 13 12 10 10 9 9 9 10 10 10 11 11 11 11 10 9 9 8 8 7 6 5 4 3 2 1 1 1 3 4 6 7 7 7 7 8 8 9 10 10 10 9 8 7
23 23 24 24 25 25 24 24 25 25 25 25 25 24 24 25 25 25 24 23 23 22 22 21 21 22 23 23 24 23 21 19 18 17 18 18 18 18 17 16 15 14 12 11 10 9 9 10 10 10 10 10 11 12 11 10 10 9 9 9 8 7 6 5 4 3 2 1 2 2 3 5 7 7 8 8 8 8 8 9 10 10 10 9 8
22 23 23 24 24 24 24 25 25 25 26 26 26 26 26 26 25 25 24 24 24 23 22 22 22 23 24 26 25 24 22 20 19 18 18 18 18 17 16 16 16 15 13 12 11 10 10 11 10 10 10 10 12 13 12 11 10 10 10 9 9 8 7 6 5 5 3 2 2 2 3 4 5 7 8 8 8 7 8 8 9 10 10 10 9
21 22 22 23 23 23 24 24 25 26 26 26 27 27 26 25 24 24 24 24 25 24 24 23 23 24 26 27 26 26 23 21 20 19 19 18 17 16 15 15 16 15 14 13 11 10 10 11 10 10 10 11 12 12 12 12 11 11 10 10 10 9 8 7 7 6 4 3 3 2 3 3 4 5 7 8 8 7 7 8 8 9 10 10 10
19 20 21 22 22 22 23 24 25 26 27 27 27 27 25 24 23 23 23 23 24 24 24 24 25 26 27 27 26 26 24 22 22 21 20 18 17 16 16 15 16 15 14 13 12 11 11 11 11 11 11 11 12 12 12 13 13 12 12 11 11 10 9 9 9 7 6 5 4 3 2 3 4 4 6 7 8 8 7 8 8 9 9 10 10
18 19 20 20 21 22 23 23 25 26 26 27 27 26 25 23 22 22 22 22 23 23 23 25 26 27 28 27 27 26 25 24 24 23 21 19 18 16 16 15 15 14 14 14 13 12 11 11 11 11 11 12 13 12 12 13 14 13 13 13 12 11 10 11 11 9 7 6 5 4 3 3 3 4 5 6 7 8 7 7 8 8 9 10 10
18 19 20 20 21 22 23 23 24 25 26 26 26 25 23 21 21 20 20 20 21 22 23 24 26 27 28 29 28 26 26 26 26 25 23 21 18 17 16 15 15 14 14 14 13 13 13 12 12 12 11 12 13 13 13 14 15 14 14 14 14 13 12 13 11 11 9 7 6 5 4 3 3 3 4 5 6 7 8 8 7 8 8 9 10
18 18 20 20 21 22 23 24 23 24 25 25 23 22 22 21 20 19 18 19 20 20 22 24 25 27 28 29 28 28 28 29 30 27 25 22 18 16 16 15 15 14 14 14 14 15 14 14 12 12 12 13 13 13 13 14 15 15 15 16 16 15 14 14 13 13 10 8 8 6 5 4 3 3 4 4 5 6 7 8 8 7 8 9 10
17 18 19 20 21 22 23 23 23 24 23 22 21 21 22 21 19 17 17 17 17 19 21 23 24 26 27 29 30 31 32 34 32 28 25 22 16 15 15 15 15 14 14 14 15 16 15 14 13 13 13 14 13 13 13 15 16 16 17 17 17 16 15 15 15 14 9 9 10 8 6 6 5 4 4 4 5 6 7 8 8 8 8 8 9
17 18 20 21 21 22 21 22 22 22 21 19 20 21 20 18 16 14 14 14 15 18 20 21 22 25 28 31 33 34 35 36 33 29 25 19 14 14 15 15 15 15 15 15 15 15 15 15 14 14 14 14 14 13 14 16 17 17 18 18 18 17 17 17 17 14 10 11 12 9 8 7 6 5 5 5 5 5 6 7 8 8 8 8 8
17 19 21 21 21 21 20 22 20 19 18 18 22 21 16 13 12 12 13 14 14 16 17 19 21 25 28 32 35 35 35 34 32 28 21 15 14 15 16 17 16 16 15 15 15 15 15 14 15 14 14 14 14 14 15 16 17 18 19 19 19 19 19 18 17 14 10 12 13 11 10 9 8 7 6 6 5 5 6 6 7 8 9 8 8
19 20 21 20 21 21 21 21 18 17 18 21 24 20 15 13 14 15 13 13 13 15 16 18 21 23 24 28 33 33 32 31 30 22 15 13 14 15 16 16 16 16 15 15 15 15 15 15 15 15 15 15 15 15 15 16 17 19 20 20 20 20 20 19 17 13 10 14 15 12 11 11 10 9 8 7 7 6 6 6 7 8 9 9 9
18 20 20 20 21 22 23 23 21 20 20 22 21 18 17 16 16 15 13 12 14 15 16 18 21 22 22 26 32 32 28 25 22 16 13 14 13 13 14 15 16 16 16 16 15 15 15 15 15 16 16 16 16 16 16 17 17 19 21 21 22 22 22 20 16 12 12 16 15 14 13 12 12 11 10 10 9 8 7 6 6 7 8 9 10
16 17 18 19 21 23 24 24 21 19 20 21 19 18 18 17 17 15 14 13 14 15 15 18 19 19 21 27 30 30 25 19 16 15 14 13 11 12 13 14 16 16 17 17 16 16 16 16 16 17 17 17 17 16 17 17 17 19 21 22 23 23 23 21 16 12 14 16 16 15 14 14 13 12 12 12 11 10 9 7 7 7 8 9 10
16 16 19 20 21 23 24 21 18 18 20 21 20 19 19 19 18 16 15 13 13 14 16 17 17 18 21 25 26 24 22 17 16 16 14 12 11 12 13 15 17 17 18 18 17 16 16 16 16 17 17 17 17 16 16 16 17 18 20 22 23 24 24 21 17 13 16 18 17 17 16 15 15 14 13 13 13 12 11 10 8 8 8 8 9
17 19 21 21 20 21 22 20 20 21 21 21 21 20 20 19 17 15 14 12 13 16 17 15 15 17 19 20 20 19 18 16 16 15 12 10 11 12 13 14 16 18 18 18 17 16 16 15 15 16 17 18 17 16 16 15 16 18 19 21 23 24 24 22 17 15 18 20 19 18 17 17 16 16 16 15 14 14 13 12 11 10 9 8 9
16 19 20 20 19 21 21 20 21 22 20 20 19 20 20 17 15 15 14 14 16 16 14 12 12 13 14 15 16 15 13 13 15 14 12 12 13 13 13 14 15 16 17 18 17 16 15 13 13 14 16 17 17 17 16 15 16 17 18 20 22 24 24 22 18 17 20 21 20 19 18 18 18 18 18 17 16 16 15 14 13 12 11 10 10
18 19 20 19 19 21 21 19 19 19 18 19 19 18 18 16 14 13 15 16 14 12 11 11 10 9 11 13 14 13 10 10 11 12 13 14 15 15 15 14 13 13 14 14 14 15 14 12 13 13 14 15 15 16 15 15 15 16 18 19 21 23 24 22 19 19 21 21 20 19 19 19 19 19 19 18 17 17 17 16 15 15 14 13 12
19 21 22 21 20 20 20 18 18 19 19 19 18 17 15 14 13 12 15 14 11 11 11 12 12 12 13 13 12 11 11 13 15 16 15 15 14 14 15 14 13 13 14 13 12 13 12 11 11 13 14 14 13 14 14 15 14 15 16 18 20 21 22 21 19 20 21 21 20 19 19 19 20 20 19 19 18 18 18 17 16 16 16 15 14
19 20 23 22 22 21 20 19 18 18 18 17 16 16 14 14 13 13 14 13 10 11 10 10 12 14 15 14 12 11 12 15 18 18 17 16 14 13 13 14 14 14 14 14 14 13 13 13 12 11 11 12 13 13 14 14 13 13 14 16 17 17 20 21 20 21 21 20 19 19 19 19 19 20 20 19 19 19 19 19 17 17 17 17 16
18 19 21 22 21 19 19 18 17 16 15 15 14 13 13 14 13 13 13 9 8 9 9 11 12 14 15 14 12 11 11 13 15 15 15 14 13 12 12 13 14 14 13 12 13 13 13 14 12 9 9 10 13 13 12 13 12 12 12 13 14 14 18 20 20 21 20 18 18 18 18 19 19 19 20 20 20 20 19 19 17 17 17 17 17
18 19 20 21 19 17 17 17 15 13 14 13 11 11 13 13 13 12 10 8 8 10 11 12 12 12 12 11 10 9 9 10 11 12 12 13 12 11 10 11 12 12 11 10 10 11 11 12 10 8 9 10 12 12 11 12 13 11 9 10 11 12 15 17 19 20 19 17 17 17 18 18 19 19 20 20 20 20 19 19 18 17 17 17 17
18 18 19 19 17 15 14 15 13 12 13 13 11 11 11 12 12 11 9 8 11 11 10 10 10 10 9 8 8 8 8 8 9 10 11 12 11 10 9 10 9 8 9 9 9 9 9 9 9 8 9 9 10 11 11 11 13 11 9 9 10 11 13 16 18 17 16 15 16 17 18 18 18 19 19 19 19 19 19 19 18 17 17 17 17
18 18 18 17 14 13 12 13 14 13 14 14 13 12 12 12 13 12 10 9 10 8 8 9 8 8 8 8 8 9 9 9 9 10 11 11 9 8 8 8 8 7 8 9 8 7 7 7 7 7 8 9 9 10 11 11 11 11 9 8 9 10 12 16 17 15 14 16 16 15 15 16 17 17 18 18 17 18 18 18 18 17 17 17 18
19 18 17 15 12 10 10 12 14 14 14 13 12 13 13 11 12 14 12 9 8 7 8 9 8 8 8 7 7 8 7 8 8 8 10 11 9 8 9 8 7 7 8 8 7 7 7 7 6 7 7 8 8 9 11 10 10 10 8 7 9 9 11 14 15 13 13 14 15 13 13 14 14 15 16 16 16 16 17 17 18 18 18 18 18
20 19 17 14 12 9 9 11 13 14 15 13 11 10 12 12 13 13 11 9 8 9 9 9 9 8 7 6 6 6 6 6 6 6 8 11 11 10 9 8 7 7 8 8 8 7 7 6 5 5 4 7 8 8 10 9 9 10 9 9 8 8 10 13 13 12 12 13 13 14 14 14 15 16 16 16 16 16 16 17 17 17 18 18 18
20 19 16 15 14 12 10 12 14 14 14 14 12 11 13 14 13 12 12 11 11 10 9 9 8 6 5 5 5 5 5 5 5 6 7 10 11 9 8 8 8 8 8 8 8 8 8 6 5 4 3 7 8 7 9 8 8 10 11 10 7 7 10 12 12 12 13 13 13 14 15 16 17 17 16 16 16 16 16 16 17 17 18 18 18
21 19 17 17 16 14 13 13 14 15 14 13 13 12 13 13 11 10 11 11 10 10 9 8 7 5 4 4 5 5 5 6 6 6 7 10 11 10 10 10 9 9 8 7 7 8 9 7 5 4 4 5 5 7 9 9 9 9 10 8 7 8 10 12 12 12 12 13 12 13 13 15 17 17 16 15 15 15 15 16 17 17 18 18 18
21 19 18 19 18 17 16 14 12 13 14 12 11 12 12 12 10 8 7 9 10 10 10 8 6 5 5 6 6 7 8 8 8 8 9 10 11 11 11 11 10 10 9 8 7 7 8 7 7 6 5 4 6 8 9 7 7 8 7 6 7 9 10 11 11 12 12 13 13 12 12 13 14 14 14 13 12 13 13 14 15 15 15 15 16
20 19 19 20 20 19 19 15 11 11 13 13 13 13 12 12 12 10 10 13 13 11 10 9 8 8 8 8 9 9 10 10 10 10 10 11 11 11 10 10 10 10 10 10 9 8 7 8 7 6 6 7 8 9 10 7 6 8 7 5 6 8 9 10 11 12 12 12 13 12 11 11 12 13 13 12 12 12 13 13 13 13 14 14 14
18 18 20 21 21 21 20 17 14 14 15 15 16 14 12 13 14 14 14 15 14 13 12 11 9 8 8 9 9 9 10 10 10 11 11 11 11 11 10 10 10 10 10 11 10 9 8 8 7 6 7 9 9 8 8 8 7 8 7 4 5 7 9 10 11 11 12 11 11 11 10 10 11 11 11 11 10 11 11 10 11 12 12 13 13
18 19 21 22 22 22 22 20 17 17 17 18 18 16 15 16 16 15 15 16 17 15 13 11 10 9 8 9 9 10 10 10 11 11 11 11 12 11 10 9 10 10 10 10 10 10 9 8 9 9 9 9 9 8 8 9 9 7 6 6 7 7 9 10 10 11 11 11 11 10 9 9 9 9 10 10 9 9 10 10 10 10 11 11 11
20 22 22 22 23 24 23 21 19 19 20 19 20 18 17 19 19 17 17 19 17 14 12 12 11 9 8 9 10 10 10 11 11 11 11 12 12 11 9 8 8 9 9 9 9 9 9 9 10 11 10 10 9 8 8 9 9 9 8 8 8 8 9 10 9 10 10 11 11 10 10 9 9 9 10 9 9 10 10 10 10 9 9 9 9
22 24 24 24 24 24 23 22 21 21 22 21 22 21 20 21 22 20 19 19 17 14 13 12 11 9 8 8 9 10 10 11 11 11 12 12 12 11 9 8 7 7 8 8 8 9 9 10 10 11 11 11 10 9 9 8 9 10 11 9 8 8 8 9 9 9 9 10 11 11 11 10 10 9 8 9 10 10 9 9 9 9 8 8 8
24 26 27 26 26 25 23 23 23 23 22 22 23 23 21 21 22 20 19 18 15 13 13 13 12 9 8 8 9 10 10 10 11 11 11 12 12 11 10 9 6 6 7 7 8 9 10 10 11 11 11 11 11 11 10 10 10 11 11 10 9 9 9 10 9 8 9 10 10 11 11 9 9 8 8 8 9 9 8 9 10 10 10 9 10
28 29 27 26 26 26 24 23 23 22 22 23 24 23 21 21 23 21 19 17 15 14 14 13 12 10 8 8 9 10 10 10 10 10 10 10 11 11 11 10 7 6 5 6 7 9 10 11 12 12 12 12 12 12 12 12 11 11 11 11 10 10 10 10 9 9 9 9 10 11 10 9 9 9 9 9 9 9 10 10 10 11 11 11 12
30 29 26 24 25 24 24 23 22 21 21 22 23 22 21 23 25 23 19 16 13 13 13 13 12 10 10 9 9 10 9 9 9 8 9 9 9 10 11 11 10 9 7 7 7 8 10 11 12 13 13 13 13 13 12 12 11 10 10 11 11 11 10 11 11 11 10 10 10 11 12 12 11 11 12 11 11 11 12 12 12 13 13 13 14
29 26 23 21 21 20 19 19 19 19 20 21 22 21 21 23 22 19 16 14 12 12 13 12 11 11 11 10 10 10 10 10 9 9 9 8 9 9 10 11 12 12 12 11 11 10 11 12 12 13 13 14 14 13 12 12 11 10 10 10 11 12 11 12 12 11 11 11 12 13 14 14 12 13 14 14 14 14 14 15 15 15 15 15 15
25 23 20 18 19 19 17 17 17 19 19 20 20 19 22 23 20 16 13 12 12 13 13 12 11 11 11 10 9 9 10 10 10 11 11 11 10 10 11 11 12 13 14 15 16 15 15 15 14 13 14 15 16 15 15 13 12 11 11 11 11 12 12 12 12 12 12 12 14 13 13 13 13 13 15 16 16 16 16 17 17 16 16 16 17
23 20 19 19 20 19 17 17 17 17 18 18 18 20 24 24 18 13 12 12 12 12 12 11 11 10 10 9 8 8 9 10 11 12 13 13 14 13 13 13 14 14 15 16 17 18 18 17 16 15 14 15 16 17 17 15 14 13 13 11 11 12 12 12 12 12 12 13 14 12 12 13 13 14 16 17 17 17 17 17 17 17 17 17 18
23 21 19 18 17 16 15 15 15 15 15 15 17 19 23 22 14 10 11 11 11 11 11 11 11 10 9 8 8 8 10 11 12 13 14 15 15 16 16 16 16 16 16 17 17 18 18 18 18 17 15 15 16 18 18 17 16 14 13 12 11 11 11 10 10 11 12 13 13 11 11 13 14 15 16 17 18 18 17 17 18 18 18 18 18
21 22 20 16 15 15 15 15 13 11 10 11 14 16 17 19 14 13 12 10 10 11 12 12 11 10 9 9 9 10 11 12 13 13 14 15 16 17 17 18 17 17 17 17 17 17 18 18 18 17 16 15 16 18 18 18 16 14 13 11 10 11 11 10 10 11 12 13 13 12 12 13 15 16 17 17 18 18 18 18 18 18 18 18 18
Wind_Direction
275 278 277 279 281 283 287 290 292 293 295 297 297 298 301 306 310 312 312 311 310 308 308 309 310 308 301 294 289 288 290 295 299 303 302 300 300 302 304 306 308 309 309 307 304 300 295 292 288 281 277 273 269 262 260 260 257 263 270 272 269 273 274 239 210 205 190 175 170 168 167 168 168 170 171 166 165 165 161 160 163 167 168 162 152
274 275 274 277 280 284 289 292 294 295 297 297 298 300 304 308 310 311 310 309 308 307 308 309 308 306 302 295 289 287 288 292 297 300 300 298 299 301 305 307 309 309 309 308 304 302 297 294 291 285 280 277 271 264 260 260 259 263 272 278 275 280 280 255 215 204 190 174 169 165 164 165 170 169 170 168 166 167 165 163 164 167 171 170 161
274 273 274 277 280 286 290 293 295 297 297 297 298 302 306 308 309 309 308 307 306 307 308 307 306 305 301 296 290 287 288 290 295 298 299 297 298 302 305 307 309 309 309 309 306 302 299 295 291 287 281 276 272 265 260 259 258 260 269 275 274 279 281 263 226 205 184 169 169 166 164 163 166 170 170 169 168 168 167 166 165 167 173 172 164
273 273 276 280 284 289 291 294 296 297 297 297 300 303 307 307 306 305 304 304 305 307 307 305 303 302 300 297 292 288 287 290 295 298 299 298 299 302 306 308 308 309 310 310 306 302 299 295 290 286 281 275 270 264 259 257 256 256 265 270 271 276 278 266 233 205 183 164 168 168 163 163 162 167 171 170 169 168 167 168 166 168 174 172 163
273 276 279 284 288 291 293 295 295 295 295 298 302 304 305 303 302 301 301 302 304 305 304 303 300 299 298 297 293 288 287 289 294 297 299 299 300 304 306 307 307 308 309 308 304 300 297 294 289 284 280 274 269 264 259 256 255 255 261 267 268 273 277 273 251 219 192 163 170 167 158 162 161 162 170 171 171 170 168 169 169 170 174 172 164
276 278 282 286 290 292 294 294 293 294 296 300 303 303 301 299 298 298 300 301 302 302 301 299 298 296 295 295 293 289 287 288 292 295 297 298 299 303 304 304 305 304 304 305 302 298 296 291 285 280 276 272 269 266 260 257 257 256 257 264 267 273 278 279 273 256 215 175 170 162 161 166 161 160 166 171 172 172 171 170 171 171 172 171 168
278 280 285 288 291 293 293 292 292 294 298 302 301 299 297 296 297 298 299 300 300 300 299 297 295 295 292 292 291 289 288 287 289 292 295 296 298 300 300 300 300 300 301 303 301 297 294 290 284 277 272 270 267 265 261 258 257 257 256 261 266 271 273 274 264 240 208 194 169 159 172 173 164 161 163 170 174 174 174 174 174 174 172 171 173
279 284 287 290 292 292 292 292 293 297 300 300 297 295 294 295 296 297 298 299 299 297 297 294 292 291 290 289 289 289 287 284 285 289 294 295 296 296 296 297 299 299 299 300 300 298 296 293 285 276 270 269 267 263 262 259 257 259 257 257 261 264 266 264 253 231 210 194 159 167 180 178 171 166 163 167 172 176 177 177 177 177 177 176 177
282 286 288 290 291 290 291 292 295 297 297 295 294 294 294 296 295 295 296 297 297 296 294 291 288 286 285 287 287 286 283 280 281 286 291 293 293 292 294 298 299 298 298 300 300 299 297 293 283 276 269 269 268 264 261 260 257 258 259 256 256 260 260 259 254 251 238 158 153 180 180 180 177 172 168 167 169 177 180 180 180 180 182 182 182
284 286 288 290 288 289 291 294 296 295 294 293 294 294 294 294 293 293 294 294 294 294 292 288 285 281 281 284 284 282 280 278 278 282 287 290 291 291 295 298 298 298 298 300 299 297 295 291 283 275 270 270 270 264 259 258 257 256 259 257 256 260 262 261 250 239 227 163 185 188 179 181 180 177 176 170 168 174 181 183 183 182 185 187 187
284 285 287 287 287 290 293 294 293 293 294 294 293 292 292 292 291 291 291 289 289 290 289 286 282 278 277 278 279 279 279 278 277 280 284 287 289 288 293 298 298 298 298 298 297 294 292 287 281 275 272 270 266 260 256 254 254 253 256 258 258 260 265 266 257 246 225 192 203 188 178 181 180 181 181 176 171 171 178 185 187 185 185 188 189
282 283 284 286 289 292 293 293 293 294 294 293 291 290 291 291 290 290 288 284 285 287 285 283 280 277 275 275 276 276 277 277 278 279 281 285 285 286 291 296 296 296 296 295 293 291 287 283 281 277 272 266 259 256 254 252 251 251 252 257 258 259 263 266 265 259 243 224 221 197 177 175 179 182 185 182 176 174 176 182 189 188 187 187 188
283 284 287 290 291 293 294 294 294 292 291 290 290 290 291 290 290 287 285 282 282 283 282 281 279 276 274 274 275 274 274 275 277 278 279 281 280 282 289 291 291 292 293 292 291 287 283 281 282 278 270 263 257 253 252 250 248 248 248 251 255 257 259 261 261 258 249 234 230 217 185 171 174 180 187 186 179 178 178 180 186 190 191 189 188
287 288 290 291 291 292 292 292 291 288 288 290 291 292 292 289 287 284 281 280 280 280 280 279 278 276 274 275 274 273 273 273 275 276 276 276 274 277 282 284 285 288 290 290 289 285 281 280 279 277 271 265 259 253 250 248 246 246 245 247 250 253 255 256 254 250 245 235 230 221 198 175 171 177 185 189 185 182 182 182 183 188 193 193 191
288 287 286 286 287 287 287 287 286 287 289 292 293 293 291 288 285 281 278 277 278 278 278 277 275 274 274 274 273 273 271 270 272 273 275 272 267 270 276 278 282 286 288 288 288 286 284 280 276 274 274 268 262 256 251 248 247 245 243 244 246 248 250 252 252 250 246 243 241 229 210 189 175 177 181 188 191 187 186 187 186 187 191 195 195
283 282 280 280 281 281 282 283 284 288 291 293 293 293 291 287 284 280 277 277 278 277 276 276 274 273 272 273 274 274 271 269 269 268 269 266 260 266 274 278 282 285 286 288 288 288 285 279 275 274 273 269 265 261 255 250 249 248 244 244 245 245 246 249 254 254 249 251 253 242 228 213 196 187 182 185 191 193 192 192 192 191 191 193 196
279 281 280 279 279 280 280 282 286 290 292 293 292 292 289 285 284 282 280 280 278 276 274 273 272 272 272 273 274 271 268 265 263 261 259 256 254 264 274 279 282 284 286 288 288 287 284 280 276 273 270 268 265 263 258 252 251 250 247 245 245 245 246 249 252 254 252 256 258 253 248 238 223 208 192 186 190 195 197 197 197 197 195 194 196
280 281 281 279 278 279 282 286 291 292 292 293 292 290 287 284 286 284 283 285 281 276 273 271 271 272 273 273 270 266 262 258 254 251 249 249 255 267 272 275 278 281 284 285 286 285 284 282 277 271 267 266 265 263 257 253 251 249 249 248 247 246 248 249 249 253 256 257 258 256 254 249 241 230 213 197 191 194 198 200 202 202 202 199 198
283 285 284 282 283 285 291 296 294 290 290 292 290 289 287 285 287 284 285 287 279 271 269 270 271 272 272 270 266 261 259 254 248 245 246 251 260 265 266 269 272 276 280 282 283 283 282 281 276 271 267 266 265 262 257 253 250 248 248 250 250 248 248 249 251 254 256 258 259 255 254 254 251 245 235 219 204 197 198 200 203 206 207 207 203
289 289 288 288 293 297 302 301 294 288 290 293 294 291 285 283 285 284 285 279 270 266 265 266 267 268 269 271 268 263 260 254 248 249 252 257 259 261 266 270 272 275 277 279 281 280 279 276 273 270 265 264 263 260 255 251 248 246 246 248 250 250 249 250 252 255 259 263 261 258 259 262 260 257 252 242 230 214 204 202 205 208 210 211 210
293 293 296 298 297 298 300 297 295 293 291 294 293 285 279 284 286 286 280 267 259 260 261 262 267 270 272 275 268 260 256 248 246 251 255 256 259 266 271 273 274 273 274 274 274 273 271 268 265 264 261 258 257 255 251 249 246 244 245 246 248 250 250 250 252 256 261 261 260 259 262 264 264 264 262 257 249 237 221 211 210 212 212 214 215
294 298 299 299 296 296 295 292 293 293 291 292 287 279 284 287 285 287 278 265 259 256 259 264 269 271 271 271 262 253 246 242 247 251 247 254 263 269 270 270 270 270 270 268 266 265 263 261 260 258 256 255 253 250 248 245 243 242 243 244 246 249 251 252 252 255 258 258 261 262 261 264 266 266 268 267 262 254 241 228 220 218 217 218 218
295 301 297 295 295 294 294 293 293 292 292 291 286 285 288 286 285 286 280 268 255 252 259 264 266 268 268 267 260 251 246 247 255 247 244 256 262 263 263 265 267 268 268 265 263 262 261 259 256 255 254 253 252 251 248 245 242 242 242 243 245 248 250 251 249 251 256 258 261 263 262 265 267 268 270 270 269 265 258 247 236 227 225 226 224
285 292 293 293 293 292 292 294 297 294 290 288 288 290 288 287 288 286 282 264 243 249 260 265 269 272 270 266 259 252 250 253 251 245 251 262 262 263 264 266 269 272 272 271 270 268 264 259 256 255 254 254 255 254 252 250 247 245 245 245 246 248 250 250 247 250 256 257 259 262 264 266 267 269 269 270 271 271 269 262 252 241 233 233 234
278 284 290 293 290 290 289 291 297 294 291 291 290 291 289 288 287 285 278 256 245 255 259 264 268 267 266 262 257 255 256 253 249 255 265 264 265 269 268 271 274 275 275 274 273 269 263 260 259 257 257 257 257 257 255 254 253 250 249 247 247 248 250 250 247 246 251 254 257 259 263 266 267 268 268 269 270 272 273 271 264 256 246 240 240
277 280 286 292 289 286 286 290 295 293 295 295 291 289 289 287 284 280 270 257 259 258 255 258 254 256 261 258 258 261 263 258 258 268 277 275 276 275 274 279 281 279 276 271 269 264 259 257 258 258 258 259 257 257 256 254 252 251 250 248 247 248 250 250 246 244 247 250 253 255 258 262 264 266 268 268 268 269 271 272 271 265 257 249 244
273 276 283 287 285 282 282 287 290 289 291 290 288 289 289 287 284 280 273 264 259 258 257 248 239 252 263 261 265 273 273 271 276 284 287 286 285 281 277 280 288 292 284 277 274 270 269 263 256 254 256 258 259 258 255 251 249 248 248 248 248 249 251 250 245 244 246 247 248 251 253 256 259 262 264 266 268 268 268 269 270 268 263 256 250
269 275 282 281 276 274 274 275 277 281 285 286 289 290 288 284 280 278 274 264 255 261 255 241 242 256 265 269 275 282 279 278 287 293 294 293 290 285 281 282 294 299 293 286 281 279 280 277 270 264 259 257 258 259 258 255 250 246 246 248 250 253 254 253 247 244 243 243 245 248 250 253 257 260 262 264 265 266 267 267 267 266 265 261 257
270 275 280 275 269 267 264 262 265 274 281 283 285 289 289 283 275 271 265 254 248 249 241 246 259 266 274 278 283 290 286 284 289 293 294 295 295 294 292 296 297 297 294 286 281 279 277 279 284 280 271 262 256 260 266 263 256 251 249 249 251 256 259 256 249 244 242 243 246 248 250 253 257 260 262 263 263 263 263 264 265 265 265 264 262
275 276 275 271 267 263 261 261 264 272 277 278 281 285 285 279 274 270 259 244 237 241 253 273 278 280 281 280 289 300 294 291 296 298 299 302 304 304 304 303 295 293 295 288 285 286 281 278 281 285 283 271 259 258 264 268 267 260 254 251 252 257 259 257 251 246 246 246 249 251 252 255 257 259 261 262 263 263 263 264 265 265 265 265 264
275 272 271 271 267 260 263 266 270 279 279 277 280 281 279 277 273 261 245 243 262 270 277 286 290 292 288 284 294 303 298 299 305 305 308 311 310 308 306 301 294 292 295 294 297 299 293 284 281 282 278 273 264 253 253 263 268 264 261 258 256 258 260 258 252 249 250 250 251 253 253 255 257 259 260 261 263 264 265 265 265 265 264 263 263
273 268 266 266 260 257 264 271 282 291 280 274 273 271 269 269 267 255 246 262 275 276 278 283 290 297 292 284 290 302 311 317 319 317 312 306 302 301 300 297 295 297 298 297 300 308 303 289 284 282 277 278 273 255 244 250 259 260 265 269 264 262 262 260 256 253 256 254 250 250 251 254 257 259 260 260 261 262 263 264 264 264 263 263 263
270 267 264 264 262 263 267 270 280 285 280 274 268 264 261 259 258 258 265 272 268 267 270 270 278 291 292 293 307 320 328 331 331 329 317 301 292 295 297 300 301 303 304 296 299 309 303 294 290 287 281 277 272 256 242 244 253 254 259 268 266 265 262 259 259 261 258 254 255 257 259 259 258 259 258 257 257 258 260 262 263 263 263 264 264
268 267 264 266 268 272 278 275 275 278 278 270 262 262 259 252 250 257 265 263 259 266 268 265 275 291 301 311 321 326 330 331 331 331 317 298 290 297 301 310 315 313 310 304 308 309 298 298 302 302 293 280 270 252 243 243 240 240 249 254 253 264 269 265 263 265 262 261 266 269 267 265 263 261 257 255 254 255 257 260 263 265 265 265 266
263 265 260 257 260 276 296 293 282 279 272 260 254 258 254 247 248 252 248 243 259 270 267 268 282 298 308 312 314 316 319 320 319 319 309 295 291 296 300 306 312 314 315 314 317 312 301 301 310 320 309 293 282 241 233 235 221 224 233 235 246 266 269 270 273 276 278 278 275 270 266 266 264 261 258 257 258 257 258 260 262 264 266 266 267
259 261 256 244 249 269 289 295 290 284 273 259 255 258 255 252 252 249 241 247 264 267 271 283 294 305 305 302 302 300 297 297 300 300 295 290 291 296 300 304 311 315 316 317 318 312 305 297 305 329 318 301 289 234 222 221 217 226 223 225 252 268 260 265 276 283 286 285 282 273 266 264 263 261 261 261 260 261 261 262 264 265 267 268 269
256 257 251 238 247 269 279 291 298 293 281 265 262 269 264 260 267 264 252 256 261 263 282 294 289 279 274 281 284 287 291 291 291 291 289 288 292 299 305 310 317 320 318 315 311 309 307 296 289 296 301 301 270 239 235 215 218 234 221 220 250 265 265 270 276 281 283 284 284 278 270 264 263 266 266 261 258 261 263 263 265 267 270 272 273
252 252 248 241 252 273 280 288 297 295 283 263 261 276 272 269 279 275 262 271 272 275 287 286 277 279 284 290 296 299 301 300 299 298 295 291 294 302 307 312 315 316 318 312 301 301 304 297 287 280 286 273 225 246 265 237 229 244 229 228 252 270 279 280 279 279 279 279 279 278 275 268 263 265 266 258 255 258 262 265 267 267 269 272 274
249 249 249 246 253 269 278 282 283 286 278 256 256 270 269 265 268 269 278 285 282 277 275 271 281 295 298 299 301 300 297 297 298 298 297 292 291 297 302 305 307 309 312 310 304 301 301 299 294 282 276 266 245 257 275 262 249 254 247 247 266 281 284 282 281 280 280 280 279 278 276 269 264 263 261 258 259 260 260 263 265 265 268 269 271
248 249 250 249 255 263 271 274 273 276 272 260 259 264 263 261 262 270 282 281 272 264 263 266 275 283 288 294 295 296 295 293 292 291 290 286 286 290 293 296 299 302 304 309 310 308 306 301 300 288 267 267 264 265 272 264 260 263 262 276 287 285 285 284 283 281 281 281 281 281 276 268 264 262 260 262 267 269 267 265 265 270 272 271 273
248 250 251 252 254 258 262 266 266 267 267 263 260 259 261 259 259 270 277 269 263 262 266 271 273 277 286 294 296 298 299 295 292 290 285 282 285 289 292 293 293 297 301 305 308 310 311 304 301 293 271 268 267 261 264 263 264 271 277 291 289 284 288 287 282 282 284 282 280 280 276 272 270 269 270 270 270 273 276 275 276 280 282 278 280
247 249 251 252 251 252 254 258 260 259 259 258 256 253 254 254 255 263 268 264 263 266 269 272 274 280 287 294 299 301 301 299 296 292 289 288 288 290 293 293 292 298 301 301 302 305 306 301 298 292 278 275 273 267 267 265 266 272 278 287 287 284 288 284 280 282 283 282 281 281 278 275 274 273 275 275 273 273 276 280 284 288 288 285 284
248 250 250 250 250 249 249 251 253 253 253 253 252 249 247 252 254 255 261 264 262 264 269 273 277 284 291 295 298 299 299 299 297 296 295 294 292 293 296 297 302 305 305 304 301 298 297 294 291 288 283 283 284 281 278 274 272 271 271 274 276 280 284 281 274 275 280 281 281 279 275 274 275 272 272 276 277 279 283 285 291 294 294 290 286
249 249 248 248 246 245 243 245 247 249 250 251 252 252 251 255 254 251 258 262 261 267 273 278 283 290 294 294 293 295 297 296 296 295 295 296 295 295 296 298 305 310 314 314 307 301 294 290 287 284 284 285 285 282 276 267 264 263 262 261 261 265 273 276 270 270 280 281 280 277 274 278 280 276 280 281 280 287 291 289 290 292 292 288 285
251 250 249 245 241 239 239 242 245 248 251 252 253 255 256 257 254 252 256 259 261 269 274 278 285 290 289 287 288 291 297 299 298 294 291 293 294 295 296 295 294 296 306 313 309 304 295 289 289 287 285 283 279 277 272 263 258 259 261 261 261 260 264 266 264 270 277 277 279 279 275 275 276 279 287 288 288 291 291 290 291 292 292 290 287
251 253 250 243 239 236 237 242 247 250 254 254 254 257 259 257 251 247 249 254 259 266 271 276 281 284 283 280 284 289 296 303 304 301 295 291 290 292 293 292 290 285 287 295 300 301 296 291 288 287 286 283 278 275 273 268 264 264 266 268 267 264 262 261 260 266 270 271 275 275 273 274 275 278 282 283 284 284 283 285 286 287 289 289 287
255 256 249 243 242 237 239 247 253 258 260 258 259 260 260 256 246 239 244 252 260 264 266 270 272 275 276 276 282 288 295 304 310 311 306 301 297 293 292 291 289 286 285 288 291 294 299 298 292 288 287 286 282 278 274 272 270 267 268 269 267 266 264 261 261 263 265 267 269 271 273 274 274 277 281 283 282 279 278 279 279 280 281 281 282
261 262 252 248 248 245 250 255 258 262 262 263 265 263 263 259 246 240 248 252 256 260 261 262 264 267 271 277 284 290 296 304 309 313 311 308 306 301 299 296 293 291 289 288 289 292 298 300 297 293 289 287 284 280 276 275 274 273 272 268 263 263 263 262 263 265 265 264 266 268 268 269 275 279 282 284 284 282 280 279 280 281 280 279 280
255 256 253 251 249 248 254 259 263 262 261 264 263 264 267 258 241 238 246 246 251 258 260 262 264 267 273 279 286 292 298 304 307 310 311 309 307 304 301 298 295 293 292 290 289 290 293 295 294 293 289 286 283 280 277 274 273 273 274 271 262 260 260 262 265 265 266 265 266 265 261 266 278 283 282 283 284 284 283 282 283 283 282 281 281
249 244 243 246 243 243 248 254 261 263 269 273 265 267 264 248 243 258 253 248 254 260 263 265 264 263 270 278 288 296 300 304 308 310 310 310 307 305 301 297 293 290 288 288 288 289 289 290 288 286 284 283 279 277 275 272 271 271 272 272 266 259 255 259 264 265 265 263 266 267 263 269 281 284 283 283 284 284 283 282 281 282 283 283 283
255 244 242 249 248 247 249 249 253 260 278 287 281 276 251 235 258 280 266 259 262 263 264 263 260 261 271 284 292 301 305 306 309 310 311 310 306 304 302 299 296 293 289 285 286 287 287 286 282 277 276 276 272 269 268 268 267 268 271 273 273 268 265 269 273 268 262 260 269 278 273 276 283 282 282 283 283 284 284 283 282 284 285 286 288
Height
5854 5855 5855 5854 5854 5854 5854 5854 5854 5853 5853 5853 5852 5852 5852 5852 5851 5851 5851 5851 5850 5849 5848 5848 5847 5847 5847 5846 5846 5845 5845 5844 5844 5844 5843 5843 5843 5842 5842 5841 5841 5840 5839 5839 5838 5837 5837 5836 5836 5836 5836 5836 5836 5836 5836 5836 5836 5836 5836 5836 5836 5836 5837 5837 5837 5837 5837 5838 5838 5838 5839 5839 5839 5840 5841 5841 5842 5842 5842 5843 5843 5844 5844 5844 5845
5853 5854 5854 5853 5853 5853 5853 5853 5853 5852 5852 5851 5851 5851 5850 5850 5850 5850 5849 5849 5848 5847 5847 5846 5846 5845 5845 5844 5844 5843 5843 5843 5842 5842 5842 5842 5842 5841 5841 5840 5840 5839 5838 5838 5837 5837 5837 5836 5836 5836 5836 5835 5835 5835 5835 5836 5836 5836 5836 5836 5836 5836 5836 5836 5837 5837 5837 5837 5838 5838 5838 5839 5839 5840 5840 5841 5842 5842 5842 5843 5843 5844 5844 5844 5845
5852 5853 5852 5852 5852 5852 5852 5851 5851 5850 5850 5849 5849 5849 5849 5849 5848 5848 5847 5847 5846 5845 5845 5844 5844 5843 5843 5842 5842 5842 5841 5841 5841 5841 5841 5841 5841 5840 5840 5839 5839 5839 5838 5837 5837 5837 5836 5836 5836 5835 5835 5835 5835 5835 5835 5835 5836 5836 5836 5836 5836 5836 5836 5836 5837 5837 5837 5837 5838 5838 5838 5839 5839 5840 5840 5841 5841 5842 5842 5843 5843 5844 5844 5845 5845
5850 5850 5850 5850 5850 5850 5850 5850 5849 5849 5848 5848 5848 5848 5848 5847 5846 5846 5845 5845 5844 5844 5843 5843 5842 5842 5841 5841 5840 5840 5840 5840 5840 5840 5840 5840 5840 5839 5839 5839 5838 5838 5837 5837 5836 5836 5836 5835 5835 5835 5835 5835 5835 5835 5835 5835 5835 5835 5836 5836 5836 5836 5836 5836 5837 5837 5837 5837 5837 5838 5838 5839 5839 5840 5840 5841 5841 5842 5842 5843 5843 5844 5844 5845 5845
5849 5849 5849 5849 5849 5849 5848 5848 5847 5847 5846 5846 5846 5846 5846 5845 5845 5844 5843 5843 5842 5842 5842 5841 5840 5840 5840 5839 5839 5839 5838 5838 5838 5839 5839 5839 5838 5838 5838 5838 5837 5837 5837 5836 5836 5835 5835 5835 5835 5835 5834 5835 5834 5834 5834 5835 5835 5835 5835 5836 5836 5836 5836 5836 5837 5837 5837 5837 5837 5838 5838 5839 5839 5839 5840 5840 5841 5841 5842 5842 5843 5844 5844 5845 5845
5847 5847 5847 5847 5847 5847 5846 5846 5845 5845 5845 5845 5845 5844 5844 5843 5843 5842 5842 5841 5841 5840 5840 5839 5839 5838 5838 5838 5837 5837 5837 5837 5837 5837 5837 5837 5837 5837 5837 5836 5836 5836 5836 5835 5835 5835 5834 5834 5834 5834 5834 5834 5834 5834 5834 5834 5835 5835 5835 5836 5836 5836 5836 5837 5837 5837 5837 5837 5837 5838 5838 5839 5839 5839 5840 5840 5841 5841 5842 5842 5843 5843 5844 5845 5845
5845 5845 5846 5845 5845 5845 5844 5844 5843 5843 5843 5843 5843 5842 5842 5841 5841 5840 5840 5839 5839 5838 5838 5837 5837 5836 5836 5836 5835 5835 5835 5836 5836 5836 5836 5836 5836 5836 5835 5835 5835 5835 5835 5834 5834 5834 5834 5833 5833 5833 5833 5833 5834 5834 5834 5834 5834 5835 5835 5836 5836 5836 5836 5837 5837 5836 5837 5837 5837 5837 5838 5838 5839 5839 5839 5840 5840 5841 5841 5842 5843 5843 5844 5845 5845
5843 5843 5844 5843 5843 5843 5842 5842 5841 5841 5841 5841 5840 5840 5840 5839 5839 5838 5838 5837 5837 5836 5836 5835 5835 5835 5834 5834 5834 5834 5834 5834 5834 5834 5834 5834 5834 5834 5834 5833 5833 5833 5833 5833 5833 5833 5833 5833 5833 5833 5833 5833 5833 5833 5833 5833 5834 5835 5835 5835 5836 5836 5836 5836 5836 5836 5836 5837 5837 5837 5838 5838 5838 5839 5839 5840 5840 5840 5841 5842 5842 5843 5844 5844 5845
5841 5841 5841 5841 5841 5840 5840 5839 5839 5839 5839 5839 5838 5838 5838 5838 5837 5836 5836 5835 5835 5834 5834 5833 5833 5833 5832 5832 5832 5832 5832 5832 5833 5833 5833 5833 5833 5833 5833 5832 5832 5832 5832 5832 5832 5832 5832 5832 5832 5832 5832 5832 5833 5833 5833 5833 5834 5834 5835 5835 5835 5836 5836 5836 5836 5836 5836 5836 5837 5837 5837 5838 5838 5839 5839 5839 5840 5840 5841 5841 5842 5843 5843 5844 5845
5839 5839 5839 5839 5838 5837 5837 5837 5837 5837 5837 5836 5836 5836 5836 5835 5835 5834 5834 5833 5833 5832 5831 5831 5831 5831 5831 5831 5830 5830 5830 5831 5831 5832 5832 5832 5832 5832 5832 5831 5832 5832 5832 5832 5831 5831 5831 5831 5831 5831 5831 5832 5832 5832 5832 5833 5833 5834 5834 5835 5835 5836 5836 5836 5836 5836 5836 5836 5837 5837 5837 5837 5838 5838 5839 5839 5839 5840 5840 5841 5842 5842 5843 5844 5845
5837 5837 5837 5836 5835 5835 5835 5835 5835 5834 5834 5834 5834 5834 5833 5833 5833 5832 5832 5831 5831 5830 5830 5829 5829 5829 5829 5829 5828 5828 5829 5830 5830 5831 5831 5831 5831 5831 5831 5831 5831 5831 5831 5830 5830 5831 5831 5830 5830 5830 5831 5831 5831 5831 5832 5832 5833 5833 5834 5834 5835 5835 5836 5836 5836 5836 5836 5836 5837 5837 5837 5837 5837 5838 5839 5839 5839 5840 5840 5841 5841 5842 5843 5843 5844
5836 5835 5835 5834 5834 5834 5833 5833 5832 5832 5832 5832 5831 5831 5831 5831 5831 5830 5830 5829 5829 5828 5828 5828 5827 5827 5827 5827 5827 5827 5828 5828 5829 5829 5829 5830 5830 5830 5830 5830 5830 5829 5829 5829 5829 5829 5830 5830 5830 5830 5830 5830 5830 5830 5831 5831 5832 5833 5833 5834 5834 5834 5835 5836 5836 5836 5836 5836 5836 5836 5837 5837 5837 5838 5838 5839 5839 5839 5840 5840 5841 5842 5842 5843 5844
5834 5833 5833 5833 5832 5832 5831 5831 5830 5830 5829 5829 5829 5829 5829 5829 5829 5828 5827 5827 5826 5826 5826 5826 5825 5825 5825 5825 5825 5825 5826 5827 5827 5828 5828 5828 5829 5829 5829 5829 5828 5828 5828 5828 5828 5828 5828 5829 5829 5829 5829 5829 5829 5829 5830 5830 5831 5832 5832 5833 5833 5834 5834 5835 5835 5835 5836 5836 5836 5836 5836 5837 5837 5837 5838 5838 5839 5839 5840 5840 5841 5841 5842 5843 5843
5832 5831 5831 5830 5830 5829 5829 5828 5827 5827 5827 5827 5827 5827 5827 5827 5826 5826 5825 5824 5824 5825 5824 5824 5823 5823 5823 5823 5823 5823 5824 5825 5826 5826 5827 5827 5828 5828 5828 5828 5827 5827 5827 5827 5827 5827 5827 5828 5828 5828 5828 5828 5828 5829 5829 5829 5830 5831 5831 5832 5832 5833 5833 5834 5834 5835 5835 5836 5836 5836 5836 5836 5837 5837 5838 5838 5839 5839 5839 5840 5840 5841 5842 5842 5843
5830 5829 5828 5828 5827 5827 5826 5825 5825 5824 5824 5825 5825 5824 5824 5824 5824 5823 5822 5822 5822 5822 5822 5822 5821 5821 5821 5821 5821 5821 5822 5823 5824 5824 5825 5826 5826 5826 5826 5826 5826 5826 5826 5826 5826 5826 5826 5827 5827 5827 5828 5828 5827 5828 5828 5828 5829 5829 5830 5830 5831 5832 5832 5832 5833 5834 5835 5836 5836 5836 5836 5836 5837 5837 5838 5838 5839 5839 5839 5840 5840 5841 5841 5842 5843
5827 5826 5825 5825 5824 5823 5823 5822 5822 5822 5823 5822 5822 5822 5821 5821 5820 5820 5820 5820 5820 5820 5820 5819 5819 5819 5819 5819 5819 5819 5820 5821 5821 5822 5823 5823 5824 5824 5824 5824 5825 5825 5825 5825 5825 5825 5825 5826 5826 5827 5827 5827 5827 5827 5827 5828 5828 5828 5829 5829 5830 5830 5831 5831 5832 5833 5834 5836 5836 5836 5836 5836 5836 5837 5837 5838 5838 5839 5839 5840 5840 5841 5841 5842 5842
5825 5824 5823 5822 5821 5820 5820 5820 5820 5821 5820 5820 5819 5819 5818 5818 5818 5818 5818 5818 5818 5817 5817 5816 5816 5816 5816 5816 5816 5817 5817 5818 5818 5819 5820 5820 5822 5822 5822 5823 5823 5824 5824 5824 5824 5824 5824 5825 5826 5826 5826 5825 5825 5826 5826 5827 5827 5827 5828 5828 5829 5829 5830 5831 5832 5832 5834 5836 5835 5836 5836 5836 5836 5837 5837 5838 5838 5839 5839 5839 5840 5840 5841 5841 5842
5823 5822 5820 5819 5818 5817 5817 5818 5819 5818 5817 5817 5816 5815 5815 5815 5816 5816 5816 5815 5815 5814 5814 5814 5814 5814 5814 5814 5813 5814 5814 5814 5815 5816 5816 5817 5819 5820 5820 5821 5822 5822 5822 5822 5823 5823 5823 5824 5824 5825 5825 5824 5824 5825 5825 5826 5826 5826 5827 5827 5828 5829 5829 5830 5830 5831 5834 5835 5834 5835 5836 5836 5836 5836 5837 5837 5838 5838 5839 5839 5840 5840 5841 5841 5842
5820 5819 5818 5816 5815 5815 5816 5816 5816 5814 5814 5814 5813 5813 5813 5814 5814 5814 5814 5813 5813 5812 5812 5811 5812 5811 5811 5810 5810 5810 5810 5811 5812 5813 5814 5815 5817 5818 5818 5819 5820 5820 5820 5821 5821 5821 5822 5822 5823 5823 5823 5823 5823 5824 5824 5825 5825 5826 5826 5826 5826 5828 5828 5828 5829 5831 5834 5833 5833 5835 5835 5835 5836 5836 5837 5837 5838 5838 5839 5839 5840 5840 5840 5841 5841
5818 5817 5816 5815 5814 5813 5814 5813 5812 5812 5812 5812 5811 5810 5811 5813 5813 5813 5812 5811 5811 5810 5810 5809 5809 5808 5808 5807 5807 5807 5807 5809 5810 5811 5813 5814 5815 5815 5816 5817 5817 5818 5818 5818 5819 5819 5820 5820 5821 5821 5821 5821 5822 5822 5823 5823 5824 5824 5824 5824 5825 5826 5826 5828 5828 5831 5833 5832 5832 5834 5834 5835 5835 5836 5836 5837 5837 5838 5839 5839 5839 5840 5840 5840 5841
5816 5815 5815 5814 5813 5812 5811 5809 5809 5810 5811 5810 5809 5808 5810 5811 5811 5810 5810 5809 5809 5808 5807 5807 5807 5806 5806 5805 5805 5805 5805 5806 5808 5810 5812 5812 5813 5814 5814 5815 5815 5815 5816 5816 5816 5817 5817 5818 5818 5819 5819 5819 5820 5820 5821 5821 5822 5822 5823 5823 5824 5824 5825 5826 5828 5831 5833 5831 5831 5832 5833 5834 5834 5835 5836 5836 5837 5838 5838 5839 5839 5839 5840 5840 5840
5815 5814 5814 5813 5811 5809 5808 5806 5806 5808 5809 5809 5807 5806 5809 5809 5808 5808 5808 5807 5807 5806 5805 5805 5804 5804 5803 5803 5804 5804 5804 5806 5809 5811 5811 5810 5811 5812 5813 5813 5813 5813 5813 5813 5814 5814 5815 5816 5816 5817 5817 5817 5817 5818 5819 5819 5820 5821 5821 5822 5822 5822 5823 5825 5828 5831 5831 5829 5830 5831 5832 5833 5833 5834 5835 5835 5836 5837 5838 5838 5839 5839 5839 5840 5840
5814 5812 5811 5811 5810 5807 5806 5804 5804 5806 5807 5806 5804 5805 5806 5806 5805 5805 5805 5805 5804 5804 5803 5802 5802 5802 5801 5801 5802 5803 5804 5808 5810 5809 5809 5809 5810 5811 5811 5811 5810 5811 5811 5811 5811 5813 5814 5814 5815 5815 5815 5815 5816 5816 5817 5817 5818 5819 5819 5820 5821 5821 5821 5824 5827 5830 5829 5828 5829 5830 5830 5831 5832 5833 5834 5834 5835 5836 5837 5838 5838 5839 5839 5839 5840
5812 5810 5808 5808 5808 5805 5803 5801 5802 5804 5804 5803 5802 5802 5803 5803 5803 5803 5803 5802 5802 5801 5800 5799 5800 5800 5800 5801 5802 5803 5804 5807 5807 5807 5808 5809 5809 5809 5808 5808 5808 5809 5809 5810 5811 5812 5813 5813 5814 5814 5814 5814 5814 5815 5816 5816 5817 5818 5818 5819 5819 5819 5820 5822 5826 5828 5827 5826 5828 5829 5829 5830 5830 5831 5832 5833 5834 5834 5836 5837 5837 5838 5839 5839 5839
5809 5808 5806 5806 5806 5803 5800 5799 5800 5801 5800 5800 5800 5799 5800 5800 5801 5801 5801 5800 5799 5798 5798 5798 5799 5800 5801 5801 5802 5803 5804 5806 5806 5806 5807 5807 5807 5806 5807 5807 5808 5808 5808 5809 5810 5811 5811 5812 5812 5812 5812 5812 5813 5814 5815 5815 5816 5816 5817 5817 5818 5818 5818 5821 5825 5827 5825 5824 5826 5827 5828 5828 5829 5830 5830 5831 5832 5833 5834 5835 5836 5837 5838 5838 5839
5807 5806 5804 5805 5804 5801 5799 5798 5798 5797 5797 5798 5798 5798 5798 5799 5799 5799 5799 5797 5797 5796 5797 5799 5799 5800 5801 5801 5802 5803 5805 5805 5806 5806 5807 5806 5805 5806 5806 5807 5806 5806 5807 5807 5809 5809 5809 5809 5810 5810 5810 5810 5811 5812 5813 5814 5814 5814 5815 5816 5816 5816 5817 5819 5823 5824 5823 5823 5824 5825 5826 5827 5828 5828 5829 5830 5831 5831 5832 5833 5834 5835 5836 5837 5837
5806 5803 5802 5804 5803 5800 5798 5797 5797 5795 5796 5797 5797 5797 5797 5797 5798 5798 5797 5796 5796 5796 5797 5798 5798 5798 5798 5800 5802 5804 5805 5805 5806 5806 5806 5805 5805 5805 5805 5805 5805 5805 5805 5806 5807 5807 5807 5808 5807 5807 5807 5808 5808 5810 5811 5812 5812 5813 5813 5814 5814 5815 5815 5817 5821 5821 5820 5821 5823 5824 5825 5825 5826 5827 5827 5828 5829 5830 5830 5832 5832 5833 5834 5835 5836
5804 5802 5800 5801 5800 5798 5797 5796 5795 5794 5793 5794 5795 5795 5795 5796 5797 5798 5797 5795 5796 5796 5796 5797 5796 5796 5796 5799 5802 5803 5804 5804 5804 5804 5804 5804 5804 5803 5803 5803 5804 5804 5804 5804 5805 5806 5807 5806 5806 5805 5806 5806 5807 5808 5809 5810 5811 5811 5811 5812 5812 5812 5813 5814 5818 5818 5818 5819 5821 5822 5823 5824 5825 5825 5826 5827 5827 5828 5828 5829 5830 5831 5832 5833 5834
5802 5800 5798 5798 5797 5795 5794 5794 5794 5793 5792 5792 5793 5794 5794 5795 5795 5796 5796 5795 5796 5796 5795 5796 5796 5796 5797 5799 5801 5803 5803 5803 5803 5803 5803 5802 5802 5801 5800 5800 5801 5802 5802 5803 5803 5804 5805 5804 5804 5804 5805 5806 5806 5807 5809 5809 5810 5810 5810 5811 5811 5811 5811 5812 5814 5815 5815 5817 5818 5820 5821 5822 5823 5824 5824 5825 5825 5826 5826 5827 5828 5829 5830 5831 5832
5800 5799 5796 5795 5793 5792 5792 5792 5793 5793 5792 5792 5794 5795 5795 5795 5794 5794 5794 5794 5795 5795 5795 5795 5796 5796 5797 5799 5801 5802 5803 5803 5803 5802 5801 5800 5800 5799 5798 5798 5799 5800 5800 5801 5801 5802 5802 5802 5803 5803 5804 5804 5805 5806 5808 5809 5809 5809 5809 5809 5810 5811 5811 5810 5811 5811 5812 5815 5817 5819 5820 5821 5821 5822 5823 5823 5823 5824 5824 5825 5827 5828 5828 5829 5830
5797 5797 5795 5793 5792 5791 5790 5791 5792 5792 5792 5793 5794 5795 5795 5794 5793 5792 5792 5794 5794 5794 5794 5795 5795 5796 5797 5799 5801 5802 5802 5802 5802 5801 5800 5798 5798 5797 5797 5797 5798 5799 5799 5799 5800 5800 5801 5801 5802 5802 5802 5802 5803 5804 5806 5808 5809 5808 5808 5808 5809 5810 5810 5808 5809 5809 5812 5815 5817 5818 5818 5819 5820 5820 5821 5821 5822 5822 5823 5824 5825 5826 5826 5827 5828
5795 5794 5793 5792 5791 5790 5791 5791 5791 5791 5792 5793 5794 5794 5794 5793 5792 5791 5791 5794 5793 5793 5794 5795 5796 5797 5799 5800 5801 5801 5800 5800 5800 5799 5798 5796 5796 5797 5797 5797 5798 5798 5799 5799 5799 5800 5800 5800 5800 5800 5801 5802 5802 5803 5804 5805 5807 5807 5806 5807 5807 5807 5807 5806 5807 5810 5812 5814 5815 5815 5816 5817 5818 5818 5819 5819 5820 5820 5821 5821 5822 5823 5824 5824 5825
5792 5791 5791 5790 5791 5791 5792 5792 5791 5790 5790 5792 5792 5792 5793 5793 5792 5790 5791 5792 5793 5793 5794 5795 5797 5798 5799 5799 5798 5798 5797 5797 5797 5797 5795 5794 5795 5797 5797 5797 5797 5797 5797 5798 5798 5799 5800 5800 5800 5800 5801 5801 5802 5803 5803 5803 5804 5805 5805 5805 5806 5805 5805 5804 5806 5809 5811 5812 5812 5813 5814 5815 5816 5816 5816 5817 5817 5818 5818 5819 5820 5820 5821 5822 5823
5789 5789 5790 5790 5791 5791 5790 5790 5790 5790 5789 5789 5790 5791 5792 5793 5793 5791 5791 5792 5793 5793 5794 5795 5796 5797 5797 5796 5796 5795 5795 5796 5796 5796 5794 5792 5793 5795 5795 5795 5795 5795 5796 5796 5797 5798 5799 5799 5799 5800 5800 5800 5801 5801 5802 5802 5802 5802 5804 5804 5804 5805 5804 5804 5805 5807 5809 5810 5811 5812 5812 5813 5814 5814 5814 5814 5815 5816 5816 5817 5818 5819 5819 5820 5821
5788 5787 5788 5789 5789 5789 5788 5787 5788 5789 5789 5788 5787 5789 5792 5793 5794 5792 5791 5792 5793 5793 5794 5795 5795 5795 5795 5794 5794 5794 5794 5795 5795 5795 5794 5792 5792 5794 5794 5794 5794 5794 5794 5795 5796 5797 5798 5799 5799 5799 5799 5799 5800 5800 5801 5801 5800 5800 5801 5801 5802 5803 5804 5803 5804 5806 5808 5809 5810 5810 5810 5811 5812 5812 5812 5813 5813 5814 5815 5815 5816 5817 5817 5818 5819
5786 5785 5786 5787 5786 5787 5788 5787 5786 5787 5788 5787 5787 5788 5791 5792 5793 5793 5792 5792 5793 5793 5793 5793 5793 5793 5793 5792 5793 5793 5793 5794 5794 5794 5794 5793 5792 5793 5794 5794 5793 5793 5794 5794 5795 5797 5798 5798 5798 5798 5797 5797 5798 5799 5799 5798 5798 5798 5799 5800 5801 5802 5803 5804 5803 5804 5806 5807 5808 5808 5809 5809 5809 5809 5810 5811 5812 5813 5813 5814 5815 5815 5815 5816 5817
5785 5784 5785 5786 5786 5786 5787 5787 5785 5784 5785 5786 5786 5787 5788 5790 5791 5792 5791 5791 5792 5792 5791 5791 5792 5792 5792 5792 5792 5792 5792 5793 5793 5793 5793 5792 5791 5792 5794 5793 5793 5793 5794 5794 5795 5796 5797 5798 5798 5797 5797 5797 5798 5799 5798 5796 5796 5797 5798 5800 5801 5801 5802 5803 5803 5803 5804 5805 5806 5807 5807 5807 5807 5807 5808 5809 5810 5811 5812 5812 5813 5813 5814 5814 5815
5784 5783 5784 5785 5785 5784 5784 5785 5785 5783 5783 5784 5784 5785 5786 5788 5789 5790 5790 5790 5791 5790 5790 5790 5790 5791 5790 5790 5790 5790 5790 5791 5791 5792 5792 5791 5790 5791 5793 5793 5793 5793 5794 5794 5795 5796 5797 5797 5798 5797 5797 5797 5797 5798 5797 5795 5795 5797 5798 5799 5799 5800 5801 5801 5801 5802 5802 5803 5804 5805 5806 5806 5806 5806 5806 5807 5808 5809 5809 5810 5811 5811 5812 5812 5813
5783 5782 5783 5783 5783 5782 5781 5783 5784 5784 5783 5784 5784 5784 5785 5786 5788 5789 5789 5789 5789 5789 5789 5790 5789 5788 5788 5788 5788 5788 5788 5789 5789 5790 5791 5790 5790 5791 5792 5792 5792 5793 5794 5794 5795 5796 5796 5797 5797 5797 5796 5797 5797 5797 5797 5795 5795 5797 5797 5798 5798 5798 5799 5800 5800 5800 5801 5801 5802 5803 5804 5804 5804 5804 5804 5805 5806 5806 5807 5808 5809 5809 5810 5810 5810
5782 5781 5781 5781 5781 5780 5780 5781 5782 5783 5783 5783 5783 5784 5784 5786 5787 5788 5787 5787 5788 5788 5788 5788 5787 5787 5786 5787 5787 5787 5788 5788 5789 5790 5791 5790 5790 5791 5792 5792 5792 5792 5793 5794 5794 5795 5796 5796 5796 5796 5796 5796 5796 5796 5796 5795 5795 5796 5796 5797 5797 5798 5798 5799 5799 5799 5799 5800 5801 5801 5802 5802 5802 5802 5803 5803 5804 5805 5806 5807 5808 5808 5808 5808 5809
5781 5779 5778 5778 5778 5779 5778 5778 5779 5780 5780 5780 5781 5782 5783 5784 5785 5785 5786 5786 5787 5786 5785 5785 5785 5785 5786 5786 5787 5787 5788 5788 5789 5790 5791 5790 5790 5791 5791 5791 5791 5791 5792 5793 5793 5794 5794 5795 5795 5795 5795 5795 5796 5795 5795 5795 5795 5795 5795 5796 5796 5797 5798 5798 5798 5798 5798 5799 5800 5800 5800 5800 5800 5800 5801 5801 5802 5804 5805 5806 5806 5806 5807 5807 5808
5778 5776 5775 5774 5774 5775 5775 5776 5776 5777 5777 5778 5779 5780 5781 5782 5783 5783 5784 5785 5784 5784 5783 5783 5784 5784 5785 5786 5786 5787 5787 5787 5788 5789 5790 5790 5790 5790 5790 5791 5790 5790 5791 5792 5793 5793 5793 5794 5794 5794 5793 5794 5794 5794 5795 5795 5794 5794 5795 5796 5796 5796 5797 5798 5798 5798 5798 5798 5798 5798 5798 5799 5799 5799 5800 5800 5801 5802 5803 5804 5804 5805 5806 5806 5807
5775 5773 5771 5769 5769 5769 5770 5772 5773 5773 5774 5775 5776 5778 5779 5780 5781 5781 5782 5782 5782 5782 5782 5782 5783 5784 5785 5786 5786 5786 5786 5786 5787 5787 5788 5789 5789 5789 5790 5790 5790 5790 5790 5791 5791 5792 5792 5793 5793 5792 5792 5792 5792 5793 5793 5794 5794 5794 5794 5795 5796 5796 5796 5797 5797 5797 5797 5797 5797 5797 5796 5797 5797 5797 5799 5799 5800 5801 5802 5802 5802 5803 5804 5805 5805
5770 5767 5765 5764 5764 5764 5766 5768 5769 5770 5771 5772 5774 5776 5777 5779 5778 5778 5779 5780 5781 5781 5781 5781 5782 5784 5784 5785 5785 5785 5785 5785 5785 5785 5786 5786 5787 5788 5789 5789 5789 5790 5790 5790 5790 5791 5791 5791 5791 5791 5791 5792 5792 5791 5792 5792 5793 5793 5793 5794 5795 5795 5795 5796 5796 5796 5796 5796 5796 5795 5795 5795 5795 5796 5797 5798 5799 5800 5800 5801 5801 5801 5802 5803 5803
5764 5762 5763 5763 5761 5761 5762 5765 5767 5768 5769 5770 5772 5773 5775 5777 5776 5775 5777 5779 5780 5780 5780 5781 5781 5782 5783 5783 5783 5783 5783 5783 5783 5783 5783 5784 5785 5786 5786 5787 5788 5789 5790 5790 5790 5790 5790 5790 5789 5789 5789 5790 5790 5790 5790 5790 5791 5792 5792 5792 5793 5793 5793 5794 5794 5794 5795 5795 5795 5794 5794 5794 5794 5794 5795 5797 5798 5798 5798 5799 5799 5799 5800 5801 5802
5760 5760 5762 5763 5762 5761 5761 5764 5766 5766 5767 5768 5769 5771 5773 5774 5774 5775 5777 5779 5779 5779 5779 5780 5780 5781 5781 5781 5782 5782 5782 5782 5782 5782 5782 5782 5783 5784 5784 5785 5786 5787 5788 5789 5790 5790 5789 5789 5788 5788 5788 5788 5789 5789 5788 5789 5790 5791 5791 5790 5791 5792 5792 5792 5792 5793 5793 5794 5793 5793 5793 5793 5793 5793 5794 5795 5797 5798 5798 5798 5798 5798 5799 5799 5800
5760 5761 5763 5764 5764 5764 5764 5766 5768 5768 5768 5768 5769 5771 5771 5772 5773 5775 5777 5778 5778 5778 5778 5779 5779 5780 5780 5781 5781 5781 5782 5782 5781 5781 5781 5781 5782 5782 5783 5783 5784 5785 5786 5787 5787 5788 5788 5787 5787 5787 5786 5786 5786 5787 5787 5787 5788 5789 5789 5789 5789 5789 5790 5790 5791 5791 5792 5792 5792 5792 5792 5792 5792 5792 5792 5793 5795 5796 5796 5797 5797 5797 5798 5798 5798
5762 5763 5764 5765 5765 5765 5766 5767 5768 5768 5768 5769 5770 5771 5771 5773 5775 5775 5776 5776 5777 5777 5777 5778 5779 5779 5780 5781 5781 5782 5782 5782 5782 5781 5781 5781 5781 5782 5782 5782 5783 5783 5784 5784 5784 5785 5785 5785 5784 5784 5784 5784 5784 5785 5785 5785 5786 5786 5787 5787 5787 5787 5788 5789 5789 5790 5791 5791 5790 5791 5791 5790 5790 5790 5790 5790 5791 5793 5794 5794 5795 5795 5795 5795 5796
5762 5762 5762 5763 5763 5764 5766 5766 5766 5766 5767 5769 5771 5771 5772 5774 5774 5774 5775 5775 5775 5776 5777 5778 5779 5779 5780 5780 5781 5781 5782 5782 5782 5781 5781 5780 5780 5781 5781 5781 5782 5782 5782 5782 5782 5783 5782 5782 5782 5782 5782 5782 5782 5782 5783 5783 5783 5784 5785 5785 5786 5786 5787 5787 5788 5788 5789 5789 5789 5789 5789 5789 5789 5789 5789 5789 5789 5790 5791 5791 5792 5792 5792 5792 5793
5758 5759 5758 5759 5760 5762 5763 5764 5764 5765 5766 5767 5769 5769 5770 5772 5773 5773 5774 5774 5774 5776 5777 5778 5778 5779 5779 5780 5780 5780 5781 5781 5781 5780 5780 5779 5779 5779 5779 5780 5780 5781 5781 5781 5781 5781 5780 5780 5780 5780 5780 5780 5780 5780 5781 5781 5782 5782 5782 5783 5783 5784 5785 5786 5786 5787 5787 5786 5787 5787 5788 5788 5788 5787 5787 5787 5787 5788 5789 5789 5789 5789 5789 5790 5790
5756 5756 5757 5758 5759 5760 5760 5761 5762 5764 5766 5766 5767 5767 5767 5770 5773 5772 5773 5773 5774 5775 5776 5777 5777 5778 5778 5779 5779 5779 5779 5779 5779 5779 5778 5778 5777 5777 5777 5778 5778 5779 5779 5779 5779 5779 5778 5778 5778 5778 5778 5778 5778 5778 5779 5780 5780 5780 5780 5781 5781 5781 5782 5783 5784 5784 5785 5785 5785 5786 5786 5786 5786 5786 5785 5785 5785 5786 5786 5786 5787 5787 5787 5787 5787